Madison, MN

5:20 AM CDT on April 19, 2018 (GMT -0500)
Madison-Lac Qui Parle County

Weather History for KDXX - May, 2013

Change the Weather History Date:

Monday, May 13, 2013

  Actual Average (KAQP) Record (KAQP)
Temperature  
Mean Temperature 66 °F -  
Max Temperature 87 °F 65 °F 89 °F (2007)
Min Temperature 44 °F 42 °F 26 °F (1997)
Growing Degree Days 16 (Base 50)    
Moisture  
Dew Point 33 °F    
Average Humidity 33    
Maximum Humidity 49    
Minimum Humidity 15    
Precipitation  
Precipitation 0.00 in - - ()
Sea Level Pressure  
Sea Level Pressure 29.84 in    
Wind  
Wind Speed 11 mph (SSW)    
Max Wind Speed 24 mph    
Max Gust Speed 30 mph    
Visibility 10 miles    
Events      
Averages and records for this station are not official NWS values.
T = Trace of Precipitation, MM = Missing Value Source: NWS Daily Summary

Daily Weather History Graph

Daily Weather History Graph

Search for Another Location

Airport or City:

Astronomy

May. 13, 2013 Rise Set
Actual Time 5:57 AM CDT 8:45 PM CDT
Civil Twilight 5:23 AM CDT 9:19 PM CDT
Nautical Twilight 4:40 AM CDT 10:02 PM CDT
Astronomical Twilight 3:50 AM CDT 10:53 PM CDT
Moon 8:43 AM CDT (5/13) 11:55 PM CDT (5/13)
Length of Visible Light 15h 55m
Length of Day
14h 47m
Waxing Crescent, 12% of the Moon is Illuminated
May 13
Waxing Crescent
May 17
First Quarter
May 24
Full
May 31
Last Quarter
Jun 8
New

Hourly Weather History & Observations

Time (CDT) Temp. Windchill Dew Point Humidity Pressure Visibility Wind Dir Wind Speed Gust Speed Precip Events Conditions
12:14 AM 44.6 °F 40.2 °F 21.2 °F 39% 30.07 in 10.0 mi SSE 8.1 mph - N/A   Clear
12:34 AM 46.4 °F 43.5 °F 21.2 °F 37% 30.06 in 10.0 mi SSE 5.8 mph - N/A   Clear
12:53 AM 46.4 °F 42.9 °F 21.2 °F 37% 30.06 in 10.0 mi SSE 6.9 mph - N/A   Clear
1:14 AM 46.4 °F 42.9 °F 21.2 °F 37% 30.06 in 10.0 mi SSE 6.9 mph - N/A   Clear
1:34 AM 46.4 °F 42.4 °F 21.2 °F 37% 30.05 in 10.0 mi SSE 8.1 mph - N/A   Clear
1:53 AM 46.4 °F 42.4 °F 21.2 °F 37% 30.05 in 10.0 mi SSE 8.1 mph - N/A   Clear
2:14 AM 46.4 °F 42.4 °F 21.2 °F 37% 30.05 in 10.0 mi SSE 8.1 mph - N/A   Clear
2:34 AM 46.4 °F 42.9 °F 21.2 °F 37% 30.05 in 10.0 mi SSE 6.9 mph - N/A   Clear
2:53 AM 46.4 °F 41.9 °F 21.2 °F 37% 30.03 in 10.0 mi SSE 9.2 mph - N/A   Clear
3:14 AM 46.4 °F 41.9 °F 21.2 °F 37% 30.03 in 10.0 mi SSE 9.2 mph - N/A   Clear
3:34 AM 48.2 °F - 23.0 °F 37% 30.03 in 10.0 mi SSE 9.2 mph - N/A   Clear
3:53 AM 48.2 °F - 23.0 °F 37% 30.01 in 10.0 mi SSE 10.4 mph - N/A   Clear
4:14 AM 46.4 °F 41.9 °F 24.8 °F 43% 30.02 in 10.0 mi SSE 9.2 mph - N/A   Clear
4:34 AM 48.2 °F - 23.0 °F 37% 30.02 in 10.0 mi SSE 9.2 mph - N/A   Clear
4:53 AM 46.4 °F 42.9 °F 24.8 °F 43% 30.02 in 10.0 mi SSE 6.9 mph - N/A   Clear
5:14 AM 44.6 °F 40.2 °F 24.8 °F 46% 30.00 in 10.0 mi SSE 8.1 mph - N/A   Clear
5:34 AM 44.6 °F 39.2 °F 26.6 °F 49% 29.99 in 10.0 mi SSE 10.4 mph - N/A   Clear
5:53 AM 44.6 °F 40.2 °F 26.6 °F 49% 29.99 in 10.0 mi SSE 8.1 mph - N/A   Clear
6:14 AM 44.6 °F 40.7 °F 26.6 °F 49% 29.99 in 10.0 mi SSE 6.9 mph - N/A   Clear
6:53 AM 46.4 °F 41.1 °F 26.6 °F 46% 29.97 in 10.0 mi SE 11.5 mph - N/A   Scattered Clouds
7:14 AM 48.2 °F - 26.6 °F 43% 29.96 in 10.0 mi SSE 11.5 mph - N/A   Scattered Clouds
7:34 AM 48.2 °F - 26.6 °F 43% 29.95 in 10.0 mi SSE 11.5 mph - N/A   Clear
7:53 AM 50.0 °F - 26.6 °F 40% 29.95 in 10.0 mi SSE 10.4 mph - N/A   Clear
8:14 AM 51.8 °F - 26.6 °F 38% 29.94 in 10.0 mi SSE 11.5 mph - N/A   Scattered Clouds
8:34 AM 53.6 °F - 26.6 °F 35% 29.93 in 10.0 mi SSE 12.7 mph - N/A   Clear
8:53 AM 55.4 °F - 26.6 °F 33% 29.92 in 10.0 mi SSE 13.8 mph 18.4 mph N/A   Clear
9:14 AM 57.2 °F - 28.4 °F 33% 29.91 in 10.0 mi South 13.8 mph - N/A   Clear
9:34 AM 60.8 °F - 32.0 °F 34% 29.90 in 10.0 mi South 15.0 mph - N/A   Clear
9:53 AM 62.6 °F - 33.8 °F 34% 29.89 in 10.0 mi South 17.3 mph 23.0 mph N/A   Clear
10:14 AM 64.4 °F - 35.6 °F 34% 29.87 in 10.0 mi South 15.0 mph 21.9 mph N/A   Clear
10:34 AM 64.4 °F - 37.4 °F 37% 29.85 in 10.0 mi South 18.4 mph - N/A   Clear
10:53 AM 66.2 °F - 39.2 °F 37% 29.85 in 10.0 mi South 19.6 mph 25.3 mph N/A   Clear
11:14 AM 69.8 °F - 39.2 °F 33% 29.83 in 10.0 mi South 23.0 mph 26.5 mph N/A   Clear
11:34 AM 69.8 °F - 39.2 °F 33% 29.81 in 10.0 mi South 20.7 mph 26.5 mph N/A   Clear
11:53 AM 71.6 °F - 39.2 °F 31% 29.81 in 10.0 mi South 24.2 mph 27.6 mph N/A   Clear
12:14 PM 71.6 °F - 39.2 °F 31% 29.79 in 10.0 mi South 21.9 mph 25.3 mph N/A   Clear
12:34 PM 73.4 °F - 39.2 °F 29% 29.78 in 10.0 mi South 21.9 mph 29.9 mph N/A   Clear
12:53 PM 73.4 °F - 39.2 °F 29% 29.77 in 10.0 mi South 21.9 mph 29.9 mph N/A   Clear
1:14 PM 75.2 °F - 39.2 °F 27% 29.77 in 10.0 mi SSW 19.6 mph - N/A   Clear
1:34 PM 75.2 °F - 39.2 °F 27% 29.76 in 10.0 mi SSW 20.7 mph 26.5 mph N/A   Clear
1:53 PM 75.2 °F - 39.2 °F 27% 29.77 in 10.0 mi SW 19.6 mph 26.5 mph N/A   Clear
2:13 PM 78.8 °F - 42.8 °F 28% 29.76 in 10.0 mi SSW 18.4 mph - N/A   Clear
2:34 PM 78.8 °F - 42.8 °F 28% 29.75 in 10.0 mi SW 21.9 mph 28.8 mph N/A   Clear
3:34 PM 82.4 °F - 42.8 °F 25% 29.72 in 10.0 mi WSW 18.4 mph 25.3 mph N/A   Clear
3:53 PM 82.4 °F - 44.6 °F 26% 29.71 in 10.0 mi WSW 16.1 mph 24.2 mph N/A   Clear
4:14 PM 84.2 °F - 44.6 °F 25% 29.70 in 10.0 mi WSW 15.0 mph 24.2 mph N/A   Clear
4:34 PM 84.2 °F - 42.8 °F 23% 29.70 in 10.0 mi West 16.1 mph 25.3 mph N/A   Clear
4:53 PM 84.2 °F - 42.8 °F 23% 29.68 in 10.0 mi WSW 16.1 mph 21.9 mph N/A   Clear
5:14 PM 86.0 °F - 42.8 °F 22% 29.68 in 10.0 mi West 11.5 mph 25.3 mph N/A   Clear
5:34 PM 86.0 °F - 42.8 °F 22% 29.67 in 10.0 mi West 15.0 mph - N/A   Clear
5:53 PM 87.8 °F - 42.8 °F 21% 29.66 in 10.0 mi West 12.7 mph 23.0 mph N/A   Clear
6:34 PM 87.8 °F - 39.2 °F 18% 29.65 in 10.0 mi West 19.6 mph 27.6 mph N/A   Clear
7:14 PM 86.0 °F - 33.8 °F 15% 29.65 in 10.0 mi NW 18.4 mph 26.5 mph N/A   Clear
7:34 PM 86.0 °F - 33.8 °F 15% 29.65 in 10.0 mi WNW 16.1 mph 26.5 mph N/A   Clear
7:53 PM 84.2 °F - 35.6 °F 18% 29.66 in 10.0 mi WNW 13.8 mph 20.7 mph N/A   Clear
8:14 PM 82.4 °F - 35.6 °F 19% 29.66 in 10.0 mi WNW 11.5 mph - N/A   Clear
8:33 PM 80.6 °F - 35.6 °F 20% 29.67 in 10.0 mi WNW 10.4 mph - N/A   Clear
8:54 PM 75.2 °F - 35.6 °F 24% 29.67 in 10.0 mi West 8.1 mph - N/A   Clear
9:13 PM 73.4 °F - 37.4 °F 27% 29.67 in 10.0 mi West 9.2 mph - N/A   Clear
9:34 PM 71.6 °F - 37.4 °F 29% 29.68 in 10.0 mi West 10.4 mph - N/A   Clear
9:54 PM 69.8 °F - 37.4 °F 31% 29.69 in 10.0 mi West 10.4 mph - N/A   Clear
10:13 PM 68.0 °F - 39.2 °F 35% 29.69 in 10.0 mi West 9.2 mph - N/A   Clear
10:34 PM 66.2 °F - 39.2 °F 37% 29.69 in 10.0 mi West 10.4 mph - N/A   Clear
10:54 PM 66.2 °F - 39.2 °F 37% 29.69 in 10.0 mi West 9.2 mph - N/A   Clear
11:13 PM 64.4 °F - 39.2 °F 40% 29.69 in 10.0 mi West 9.2 mph - N/A   Clear
11:34 PM 64.4 °F - 37.4 °F 37% 29.70 in 10.0 mi West 9.2 mph - N/A   Clear
11:54 PM 60.8 °F - 37.4 °F 42% 29.70 in 10.0 mi West 8.1 mph - N/A   Clear